SL-14 R/B, 22784

Orbit data source: Space-Track

SL-14 R/B, 22784 is space debris in LEO originally from a launch on Tue, 31 Aug 1993 UTC launched from the Plesetsk Missile And Space Complex (PKMTR). Debris objects in space refer to the collection of defunct objects orbiting the Earth. Examples of debris include non-operational satellites, rocket bodies, and fragments generated from explosions, collisions, or faulty payload assembly.

Loading next visibility...
Identifier
22784, 1993-055C
Orbit
LEO
Country
Flag of CISCIS
Related business
Manufacturer
Yuzhnoe
Mission
Spacecraft
Bus & Motor
S5M, Unknown motor
Mass
1,600 kg wet, 1,600 kg dry
Launch date (UTC)
1993-08-31 (32 years ago)
Launch vehicle
Unknown
Launch site
Plesetsk Missile And Space Complex (PKMTR)
Object type
Payload
Rocket body
Debris
Shape & HBR
Cyl, 1.4 m
Radar Cross Section
7.351 m², Large (>1 m²)

Expand to show TLE details & history
Last TLE update: 9 hours ago

TLE from 9 hours ago
0 SL-14 R/B
1 22784U 93055C   25260.83545953  .00000027  00000-0  11208-4 0  9997
2 22784  82.5531 155.9018 0020677 266.5276 164.6389 13.83535214618067
Epoch: 2025-09-17T20:03Z
TLE epoch observation values (Epoch: 2025-09-17T20:03:03.703Z)
Latitude
69.9303°
Longitude
-121.02017°
Altitude
978.079 km
Speed
7.362 km/s
True Right ascension
11h 47m 00s
True Declination
69° 49' 21"
Sunlit
Object was in daylight at epoch
Visualization orbit readout
Latitude
Unknown
Longitude
Unknown
Altitude
Unknown
Speed
Unknown
Apparent Right ascension
Unknown
Apparent Declination
Unknown
Sunlit
N/A
Visualization observer readout
Local Sidereal Time
21:22:05
Azimuth
Unknown
Elevation
Unknown
Doppler factor
Unknown
Orbital elements
Apogee altitude
963.676 km
Perigee altitude
933.377 km
Semi-major axis
7,326.664 km
Eccentricity
0.00207
Inclination
82.5531°
RAAN
155.9018°
Arg. of periapsis
266.5276°
True anomaly
164.70151°
Mean anomaly
164.6389°
Eccentric anomaly
164.67022°
Mean motion
3.46086 °/min
Orbital period
104.02 mins
BSTAR
0.000011208
Loading maneuver chart data...
Computing Atmospheric mass density...
Loading historical data...
Loading historical data...
Loading historical data...
Loading historical data...
Loading historical data...
Loading historical data...
Loading historical data...
Other satellites on launch #55 in the year 1993 (1993-08-31 UTC)

Documentation

Showing up to 5 results
|